STARLINK-32647 (62200 NORAD) Tracking and Keplerian Element Data

This shows tracking and keplerian element data for the satellite.

Feedback or suggestion? Click here.




ElementValue
Catalog62200
NameSTARLINK-32647
Epoch Orbit946
Epoch Day34.26280047
Epoch Year2025
RAAN7.3769
Inclination43.0031
Eccentricity0.0001544
Argument of Perigee265.6298
Mean Anonmoly94.4379
Mean Motion15.32119744
Decay Rate2.065E-05
L11 62200U 24229J 25034.26280047 .00002065 00000+0 73887-4 0 9991
L22 62200 43.0031 7.3769 0001544 265.6298 94.4379 15.32119744 9469



Live tracking and technical data element details for STARLINK-32647 (NORAD 62200). STARLINK-32647 can be tracked NOW for your location showing map with azimuth and elevation plus other details from your city location.







IsCatalogInMostPopularTable: catalog: 62200, numindb: 14
Update: records affected: 1



GetName: 62200 STARLINK-32647

Hit Count: updated at: Sun, 18 May 2025 22:39:23 GMT